sat.trackr.live / text

‹ back to catalog

HULIANWANG DIGUI-93

NORAD 66001 · 2025-231G

PAYLOAD ACTIVE UNKNOWN

§ Identity

Operator
Country
PRC
Launch date
2025-10-16
Launch site
WSC
Launch vehicle
Mass (kg)
RCS (m²)

External: N2YO · Heavens-Above · Gunter

§ Orbital elements

Epoch: 2026-09-20T05:12:20.236896Z

Period
108.33 min
Inclination
50.0013°
Eccentricity
0.0000448
Mean motion
13.29328132 rev/d
Perigee alt
1,149.0 km
Apogee alt
1,149.6 km
Semi-major
7,527.4 km
B*
5.0453e-5
RAAN
194.6052°
Arg perigee
60.3944°
Mean anomaly
299.6973°
Rev number
4,553

§ Raw data

HULIANWANG DIGUI-931 66001U 25231G   26263.21690089 -.00000101  00000+0  50453-4 0  99932 66001  50.0013 194.6052 0000448  60.3944 299.6973 13.29328132 45539

JSON: /api/v1/satellites/66001 · /tle

For live sub-satellite position, see the globe view (requires WebGL).

§ Visibility from observer

Set your observer location to see the next 7 days of passes ≥ 10°. The values pass through the URL so the page stays shareable.

No JS? Fill the form by hand. The geolocation button needs JavaScript.